Terminal Aerodrome Forecast
Issued by NWS Twin Cities, MN

Home | Current Version | Previous Version | Graphics & Text | Print | Product List | Glossary On
Versions: 1 2 3 4 5 6 7 8 9 10 11 12 13 14 15 16 17 18 19 20 21 22 23 24 25 26 27 28 29
000
FTUS43 KMPX 220521
TAFMSP
TAF
KMSP 220521Z 2206/2312 16005KT P6SM OVC015
      TEMPO 2209/2213 2SM BR BKN007
     FM221500 15004KT P6SM BKN020
     FM221600 VRB03KT P6SM BKN035=

USA.gov is the U.S. government's official web portal to all federal, state and local government web resources and services.